Time,TemperatureF,DewpointF,PressureIn,WindDirection,WindDirectionDegrees,WindSpeedMPH,WindSpeedGustMPH,Humidity,HourlyPrecipIn,Conditions,Clouds,dailyrainin,SoftwareType,DateUTC
2013-12-03 00:00:00,40.5,38.9,29.78,SSE,163,1.0,2.0,94,0.00,,,0.00,Wunderground v.1.15,2013-12-03 05:00:00,
2013-12-03 00:05:00,40.6,39.0,29.78,East,99,1.0,2.0,94,0.00,,,0.00,Wunderground v.1.15,2013-12-03 05:05:00,
2013-12-03 00:10:00,40.8,39.5,29.78,NNE,17,1.0,1.0,95,0.00,,,0.00,Wunderground v.1.15,2013-12-03 05:10:00,
2013-12-03 00:15:00,41.0,39.7,29.77,NNE,13,1.0,2.0,95,0.00,,,0.00,Wunderground v.1.15,2013-12-03 05:15:00,
2013-12-03 00:20:00,41.3,39.7,29.77,ENE,60,2.0,2.0,94,0.00,,,0.00,Wunderground v.1.15,2013-12-03 05:20:00,
2013-12-03 00:30:00,41.5,39.9,29.78,NNW,337,2.0,2.0,94,0.00,,,0.00,Wunderground v.1.15,2013-12-03 05:30:00,
2013-12-03 00:35:00,41.5,39.9,29.78,ENE,63,2.0,2.0,94,0.00,,,0.00,Wunderground v.1.15,2013-12-03 05:35:00,
2013-12-03 00:40:00,41.4,39.8,29.78,NNW,348,2.0,2.0,94,0.00,,,0.00,Wunderground v.1.15,2013-12-03 05:40:00,
2013-12-03 00:45:00,41.4,39.8,29.78,East,96,2.0,3.0,94,0.00,,,0.00,Wunderground v.1.15,2013-12-03 05:45:00,
2013-12-03 00:50:00,41.3,39.7,29.78,WNW,285,2.0,2.0,94,0.00,,,0.00,Wunderground v.1.15,2013-12-03 05:50:00,
2013-12-03 01:00:00,41.3,39.7,29.78,North,3,2.0,4.0,94,0.00,,,0.00,Wunderground v.1.15,2013-12-03 06:00:00,
2013-12-03 01:10:00,41.2,39.6,29.78,NW,322,3.0,3.0,94,0.00,,,0.00,Wunderground v.1.15,2013-12-03 06:10:00,
2013-12-03 01:20:00,41.4,39.8,29.78,NNW,339,2.0,3.0,94,0.00,,,0.00,Wunderground v.1.15,2013-12-03 06:20:00,
2013-12-03 01:30:00,41.5,39.6,29.78,NNW,337,2.0,2.0,93,0.00,,,0.00,Wunderground v.1.15,2013-12-03 06:30:00,
2013-12-03 01:40:00,41.6,39.7,29.78,South,191,2.0,3.0,93,0.00,,,0.00,Wunderground v.1.15,2013-12-03 06:40:00,
2013-12-03 01:50:00,41.6,39.7,29.78,South,172,1.0,2.0,93,0.00,,,0.00,Wunderground v.1.15,2013-12-03 06:50:00,
2013-12-03 02:00:00,41.5,39.6,29.79,ENE,76,2.0,2.0,93,0.00,,,0.00,Wunderground v.1.15,2013-12-03 07:00:00,
2013-12-03 02:10:00,41.4,39.5,29.79,NNE,16,2.0,3.0,93,0.00,,,0.00,Wunderground v.1.15,2013-12-03 07:10:00,
2013-12-03 02:20:00,41.3,39.4,29.79,NNE,30,2.0,2.0,93,0.00,,,0.00,Wunderground v.1.15,2013-12-03 07:20:00,
2013-12-03 02:30:00,41.1,39.0,29.79,NE,35,2.0,2.0,92,0.00,,,0.00,Wunderground v.1.15,2013-12-03 07:30:00,
2013-12-03 02:40:00,41.0,38.9,29.79,NNE,15,1.0,1.0,92,0.00,,,0.00,Wunderground v.1.15,2013-12-03 07:40:00,
2013-12-03 02:50:00,40.9,38.8,29.78,NNE,29,1.0,2.0,92,0.00,,,0.00,Wunderground v.1.15,2013-12-03 07:50:00,
2013-12-03 03:00:00,40.9,38.8,29.78,NNE,16,3.0,3.0,92,0.00,,,0.00,Wunderground v.1.15,2013-12-03 08:00:00,
2013-12-03 03:10:00,40.9,39.0,29.78,NNE,14,3.0,5.0,93,0.00,,,0.00,Wunderground v.1.15,2013-12-03 08:10:00,
2013-12-03 03:20:00,41.0,39.1,29.78,North,10,5.0,5.0,93,0.00,,,0.00,Wunderground v.1.15,2013-12-03 08:20:00,
2013-12-03 03:30:00,41.0,39.1,29.78,NE,39,5.0,5.0,93,0.00,,,0.00,Wunderground v.1.15,2013-12-03 08:30:00,
2013-12-03 03:40:00,41.0,39.1,29.78,NNE,14,7.0,7.0,93,0.00,,,0.00,Wunderground v.1.15,2013-12-03 08:40:00,
2013-12-03 03:50:00,40.6,38.7,29.78,NNE,33,7.0,7.0,93,0.00,,,0.00,Wunderground v.1.15,2013-12-03 08:50:00,
2013-12-03 04:00:00,40.0,37.9,29.78,North,10,8.0,8.0,92,0.00,,,0.00,Wunderground v.1.15,2013-12-03 09:00:00,
2013-12-03 04:10:00,39.5,37.6,29.78,North,7,7.0,7.0,93,0.00,,,0.00,Wunderground v.1.15,2013-12-03 09:10:00,
2013-12-03 04:20:00,39.2,37.3,29.78,North,353,5.0,5.0,93,0.00,,,0.00,Wunderground v.1.15,2013-12-03 09:20:00,
2013-12-03 04:30:00,39.1,37.2,29.78,North,353,5.0,5.0,93,0.00,,,0.00,Wunderground v.1.15,2013-12-03 09:30:00,
2013-12-03 04:40:00,38.9,37.0,29.78,NW,314,4.0,4.0,93,0.00,,,0.00,Wunderground v.1.15,2013-12-03 09:40:00,
2013-12-03 04:50:00,38.9,37.0,29.78,NNE,25,3.0,3.0,93,0.00,,,0.00,Wunderground v.1.15,2013-12-03 09:50:00,
2013-12-03 05:00:00,38.9,37.0,29.78,NNE,22,3.0,6.0,93,0.00,,,0.00,Wunderground v.1.15,2013-12-03 10:00:00,
2013-12-03 05:10:00,39.0,37.4,29.78,NE,48,5.0,5.0,94,0.00,,,0.00,Wunderground v.1.15,2013-12-03 10:10:00,
2013-12-03 05:20:00,39.0,37.4,29.78,NNW,348,5.0,9.0,94,0.00,,,0.00,Wunderground v.1.15,2013-12-03 10:20:00,
2013-12-03 05:30:00,39.0,37.4,29.78,North,349,8.0,9.0,94,0.00,,,0.00,Wunderground v.1.15,2013-12-03 10:30:00,
2013-12-03 05:40:00,38.6,37.0,29.78,North,10,7.0,10.0,94,0.00,,,0.00,Wunderground v.1.15,2013-12-03 10:40:00,
2013-12-03 05:50:00,38.1,36.3,29.78,North,6,7.0,7.0,93,0.00,,,0.00,Wunderground v.1.15,2013-12-03 10:50:00,
2013-12-03 06:00:00,37.8,36.2,29.78,North,3,7.0,9.0,94,0.00,,,0.00,Wunderground v.1.15,2013-12-03 11:00:00,
2013-12-03 06:10:00,37.8,36.2,29.78,North,350,7.0,9.0,94,0.00,,,0.00,Wunderground v.1.15,2013-12-03 11:10:00,
2013-12-03 06:20:00,37.7,36.1,29.78,NNW,347,6.0,6.0,94,0.00,,,0.00,Wunderground v.1.15,2013-12-03 11:20:00,
2013-12-03 06:30:00,37.5,35.9,29.78,North,3,6.0,7.0,94,0.00,,,0.00,Wunderground v.1.15,2013-12-03 11:30:00,
2013-12-03 06:40:00,37.4,35.8,29.78,NE,40,5.0,5.0,94,0.00,,,0.00,Wunderground v.1.15,2013-12-03 11:40:00,
2013-12-03 06:50:00,37.2,35.6,29.78,ENE,74,5.0,5.0,94,0.00,,,0.00,Wunderground v.1.15,2013-12-03 11:50:00,
2013-12-03 07:00:00,37.2,35.6,29.79,NNE,12,6.0,7.0,94,0.00,,,0.00,Wunderground v.1.15,2013-12-03 12:00:00,
2013-12-03 07:10:00,37.3,35.7,29.79,NNW,343,6.0,6.0,94,0.00,,,0.00,Wunderground v.1.15,2013-12-03 12:10:00,
2013-12-03 07:20:00,37.3,35.7,29.79,NE,44,7.0,7.0,94,0.00,,,0.00,Wunderground v.1.15,2013-12-03 12:20:00,
2013-12-03 07:30:00,37.3,35.7,29.78,NNW,337,5.0,7.0,94,0.00,,,0.00,Wunderground v.1.15,2013-12-03 12:30:00,
2013-12-03 07:40:00,37.3,35.7,29.78,NNW,339,3.0,3.0,94,0.00,,,0.00,Wunderground v.1.15,2013-12-03 12:40:00,
2013-12-03 07:50:00,37.5,35.9,29.78,North,9,2.0,3.0,94,0.00,,,0.00,Wunderground v.1.15,2013-12-03 12:50:00,
2013-12-03 08:00:00,37.6,36.3,29.78,NNE,19,3.0,4.0,95,0.00,,,0.00,Wunderground v.1.15,2013-12-03 13:00:00,
2013-12-03 08:10:00,37.9,36.6,29.78,NNE,30,3.0,3.0,95,0.00,,,0.00,Wunderground v.1.15,2013-12-03 13:10:00,
2013-12-03 08:20:00,38.2,36.6,29.78,NNE,15,3.0,3.0,94,0.00,,,0.00,Wunderground v.1.15,2013-12-03 13:20:00,
2013-12-03 08:30:00,38.7,37.4,29.79,NNE,32,4.0,4.0,95,0.00,,,0.00,Wunderground v.1.15,2013-12-03 13:30:00,
2013-12-03 08:40:00,39.2,37.9,29.79,NNE,15,5.0,5.0,95,0.00,,,0.00,Wunderground v.1.15,2013-12-03 13:40:00,
2013-12-03 08:50:00,39.5,37.9,29.79,NNE,23,7.0,8.0,94,0.00,,,0.00,Wunderground v.1.15,2013-12-03 13:50:00,
2013-12-03 09:00:00,39.4,37.5,29.80,NNE,25,7.0,7.0,93,0.00,,,0.00,Wunderground v.1.15,2013-12-03 14:00:00,
2013-12-03 09:10:00,39.4,37.5,29.80,NNE,15,5.0,5.0,93,0.00,,,0.00,Wunderground v.1.15,2013-12-03 14:10:00,
2013-12-03 09:20:00,39.1,37.2,29.80,North,358,5.0,7.0,93,0.00,,,0.00,Wunderground v.1.15,2013-12-03 14:20:00,
2013-12-03 09:30:00,38.9,36.8,29.80,NNW,343,6.0,6.0,92,0.00,,,0.00,Wunderground v.1.15,2013-12-03 14:30:00,
2013-12-03 09:40:00,38.8,36.7,29.80,NNE,12,6.0,6.0,92,0.00,,,0.00,Wunderground v.1.15,2013-12-03 14:40:00,
2013-12-03 09:50:00,39.0,36.9,29.81,NNE,21,6.0,6.0,92,0.00,,,0.00,Wunderground v.1.15,2013-12-03 14:50:00,
2013-12-03 10:00:00,38.9,36.5,29.81,North,349,5.0,6.0,91,0.00,,,0.00,Wunderground v.1.15,2013-12-03 15:00:00,
2013-12-03 10:10:00,39.2,37.1,29.81,North,354,5.0,5.0,92,0.00,,,0.00,Wunderground v.1.15,2013-12-03 15:10:00,
2013-12-03 10:20:00,39.2,36.8,29.81,NW,312,5.0,5.0,91,0.00,,,0.00,Wunderground v.1.15,2013-12-03 15:20:00,
2013-12-03 10:30:00,39.3,36.9,29.81,North,352,5.0,7.0,91,0.00,,,0.00,Wunderground v.1.15,2013-12-03 15:30:00,
2013-12-03 10:40:00,39.5,37.1,29.81,NW,316,6.0,6.0,91,0.00,,,0.00,Wunderground v.1.15,2013-12-03 15:40:00,
2013-12-03 10:50:00,39.6,37.2,29.81,NW,326,5.0,5.0,91,0.00,,,0.00,Wunderground v.1.15,2013-12-03 15:50:00,
2013-12-03 11:00:00,39.6,37.2,29.80,NW,308,5.0,5.0,91,0.00,,,0.00,Wunderground v.1.15,2013-12-03 16:00:00,
2013-12-03 11:10:00,39.8,37.4,29.80,NNW,335,5.0,6.0,91,0.00,,,0.00,Wunderground v.1.15,2013-12-03 16:10:00,
2013-12-03 11:20:00,40.1,37.7,29.80,North,355,6.0,6.0,91,0.00,,,0.00,Wunderground v.1.15,2013-12-03 16:20:00,
2013-12-03 11:30:00,40.2,37.8,29.80,NNW,330,6.0,10.0,91,0.00,,,0.00,Wunderground v.1.15,2013-12-03 16:30:00,
2013-12-03 11:40:00,40.1,37.7,29.80,NNE,23,8.0,8.0,91,0.00,,,0.00,Wunderground v.1.15,2013-12-03 16:40:00,
2013-12-03 11:50:00,40.2,37.5,29.79,NW,313,8.0,8.0,90,0.00,,,0.00,Wunderground v.1.15,2013-12-03 16:50:00,
2013-12-03 12:00:00,40.4,37.4,29.79,NW,314,7.0,9.0,89,0.00,,,0.00,Wunderground v.1.15,2013-12-03 17:00:00,
2013-12-03 12:10:00,40.7,37.4,29.79,North,9,6.0,6.0,88,0.00,,,0.00,Wunderground v.1.15,2013-12-03 17:10:00,
2013-12-03 12:20:00,41.1,37.5,29.79,NW,326,5.0,6.0,87,0.00,,,0.00,Wunderground v.1.15,2013-12-03 17:20:00,
2013-12-03 12:30:00,41.6,38.0,29.79,NW,320,6.0,6.0,87,0.00,,,0.00,Wunderground v.1.15,2013-12-03 17:30:00,
2013-12-03 12:40:00,42.1,38.2,29.79,WNW,290,6.0,6.0,86,0.00,,,0.00,Wunderground v.1.15,2013-12-03 17:40:00,
2013-12-03 12:50:00,42.6,38.7,29.79,West,275,6.0,6.0,86,0.00,,,0.00,Wunderground v.1.15,2013-12-03 17:50:00,
2013-12-03 13:00:00,43.0,38.8,29.78,NW,315,5.0,5.0,85,0.00,,,0.00,Wunderground v.1.15,2013-12-03 18:00:00,
2013-12-03 13:10:00,43.3,39.1,29.78,NNE,27,4.0,5.0,85,0.00,,,0.00,Wunderground v.1.15,2013-12-03 18:10:00,
2013-12-03 13:20:00,43.4,39.2,29.78,NNW,344,4.0,5.0,85,0.00,,,0.00,Wunderground v.1.15,2013-12-03 18:20:00,
2013-12-03 13:30:00,43.4,38.9,29.78,NNW,338,4.0,4.0,84,0.00,,,0.00,Wunderground v.1.15,2013-12-03 18:30:00,
2013-12-03 13:40:00,43.6,39.1,29.78,WSW,255,4.0,4.0,84,0.00,,,0.00,Wunderground v.1.15,2013-12-03 18:40:00,
2013-12-03 13:50:00,43.7,38.9,29.78,NNW,341,3.0,3.0,83,0.00,,,0.00,Wunderground v.1.15,2013-12-03 18:50:00,
2013-12-03 14:00:00,43.8,39.3,29.77,WNW,297,3.0,3.0,84,0.00,,,0.00,Wunderground v.1.15,2013-12-03 19:00:00,
2013-12-03 14:10:00,43.9,39.1,29.77,North,358,4.0,4.0,83,0.00,,,0.00,Wunderground v.1.15,2013-12-03 19:10:00,
2013-12-03 14:20:00,44.0,39.5,29.76,NW,312,2.0,3.0,84,0.00,,,0.00,Wunderground v.1.15,2013-12-03 19:20:00,
2013-12-03 14:30:00,44.0,39.5,29.76,North,352,2.0,4.0,84,0.00,,,0.00,Wunderground v.1.15,2013-12-03 19:30:00,
2013-12-03 14:40:00,44.0,39.5,29.76,NNW,339,3.0,3.0,84,0.00,,,0.00,Wunderground v.1.15,2013-12-03 19:40:00,
2013-12-03 14:50:00,44.0,39.8,29.76,NW,325,3.0,3.0,85,0.00,,,0.00,Wunderground v.1.15,2013-12-03 19:50:00,
2013-12-03 15:00:00,44.0,39.8,29.77,NNW,340,3.0,3.0,85,0.00,,,0.00,Wunderground v.1.15,2013-12-03 20:00:00,
2013-12-03 15:10:00,44.1,39.9,29.77,North,4,2.0,3.0,85,0.00,,,0.00,Wunderground v.1.15,2013-12-03 20:10:00,
2013-12-03 15:20:00,44.1,39.9,29.78,WNW,295,3.0,3.0,85,0.00,,,0.00,Wunderground v.1.15,2013-12-03 20:20:00,
2013-12-03 15:30:00,44.2,40.0,29.78,NW,314,3.0,3.0,85,0.00,,,0.00,Wunderground v.1.15,2013-12-03 20:30:00,
2013-12-03 15:40:00,44.4,39.9,29.78,WNW,301,2.0,2.0,84,0.00,,,0.00,Wunderground v.1.15,2013-12-03 20:40:00,
2013-12-03 15:50:00,44.5,40.0,29.79,NW,308,2.0,2.0,84,0.00,,,0.00,Wunderground v.1.15,2013-12-03 20:50:00,
2013-12-03 16:00:00,44.4,39.9,29.79,NW,316,2.0,2.0,84,0.00,,,0.00,Wunderground v.1.15,2013-12-03 21:00:00,
2013-12-03 16:10:00,44.3,39.2,29.79,WSW,250,2.0,2.0,82,0.00,,,0.00,Wunderground v.1.15,2013-12-03 21:10:00,
2013-12-03 16:20:00,44.0,37.6,29.80,SW,232,2.0,5.0,78,0.00,,,0.00,Wunderground v.1.15,2013-12-03 21:20:00,
2013-12-03 16:30:00,43.9,37.2,29.80,SW,219,2.0,2.0,77,0.00,,,0.00,Wunderground v.1.15,2013-12-03 21:30:00,
2013-12-03 16:40:00,43.9,36.8,29.80,SSW,213,2.0,2.0,76,0.00,,,0.00,Wunderground v.1.15,2013-12-03 21:40:00,
2013-12-03 16:50:00,44.0,36.6,29.81,SW,235,3.0,3.0,75,0.00,,,0.00,Wunderground v.1.15,2013-12-03 21:50:00,
2013-12-03 17:00:00,44.1,36.0,29.81,WSW,240,2.0,2.0,73,0.00,,,0.00,Wunderground v.1.15,2013-12-03 22:00:00,
2013-12-03 17:10:00,44.2,35.7,29.81,SSW,193,2.0,3.0,72,0.00,,,0.00,Wunderground v.1.15,2013-12-03 22:10:00,
2013-12-03 17:20:00,44.3,35.8,29.81,SW,224,2.0,3.0,72,0.00,,,0.00,Wunderground v.1.15,2013-12-03 22:20:00,
2013-12-03 17:30:00,44.5,35.7,29.82,SW,232,2.0,2.0,71,0.00,,,0.00,Wunderground v.1.15,2013-12-03 22:30:00,
2013-12-03 17:40:00,44.5,35.7,29.82,WSW,237,2.0,3.0,71,0.00,,,0.00,Wunderground v.1.15,2013-12-03 22:40:00,
2013-12-03 17:50:00,44.8,36.3,29.83,WNW,284,3.0,3.0,72,0.00,,,0.00,Wunderground v.1.15,2013-12-03 22:50:00,
2013-12-03 18:00:00,45.2,36.4,29.83,WNW,295,3.0,5.0,71,0.00,,,0.00,Wunderground v.1.15,2013-12-03 23:00:00,
2013-12-03 18:10:00,45.4,36.5,29.83,NW,310,4.0,4.0,71,0.00,,,0.00,Wunderground v.1.15,2013-12-03 23:10:00,
2013-12-03 18:20:00,45.3,37.2,29.83,NW,323,3.0,3.0,73,0.00,,,0.00,Wunderground v.1.15,2013-12-03 23:20:00,
2013-12-03 18:30:00,45.4,37.9,29.84,NNW,337,4.0,4.0,75,0.00,,,0.00,Wunderground v.1.15,2013-12-03 23:30:00,
2013-12-03 18:40:00,45.6,38.8,29.84,NNW,333,5.0,5.0,77,0.00,,,0.00,Wunderground v.1.15,2013-12-03 23:40:00,
2013-12-03 18:50:00,45.6,39.5,29.84,NNE,13,4.0,4.0,79,0.00,,,0.00,Wunderground v.1.15,2013-12-03 23:50:00,
2013-12-03 19:00:00,45.4,40.2,29.84,North,6,4.0,5.0,82,0.00,,,0.00,Wunderground v.1.15,2013-12-04 00:00:00,
2013-12-03 19:10:00,45.2,39.7,29.84,NW,325,5.0,5.0,81,0.00,,,0.00,Wunderground v.1.15,2013-12-04 00:10:00,
2013-12-03 19:20:00,45.1,39.3,29.84,North,353,4.0,4.0,80,0.00,,,0.00,Wunderground v.1.15,2013-12-04 00:20:00,
2013-12-03 19:30:00,45.1,39.6,29.84,North,354,4.0,6.0,81,0.00,,,0.00,Wunderground v.1.15,2013-12-04 00:30:00,
2013-12-03 19:40:00,45.0,39.2,29.84,NW,314,4.0,4.0,80,0.00,,,0.00,Wunderground v.1.15,2013-12-04 00:40:00,
2013-12-03 19:50:00,44.8,39.6,29.85,NE,45,4.0,9.0,82,0.00,,,0.00,Wunderground v.1.15,2013-12-04 00:50:00,
2013-12-03 20:00:00,44.7,39.5,29.85,North,355,5.0,5.0,82,0.00,,,0.00,Wunderground v.1.15,2013-12-04 01:00:00,
2013-12-03 20:15:00,45.1,39.3,29.85,North,7,8.0,8.0,80,0.00,,,0.00,Wunderground v.1.15,2013-12-04 01:15:00,
2013-12-03 20:20:00,45.2,39.1,29.85,NNW,348,8.0,10.0,79,0.00,,,0.00,Wunderground v.1.15,2013-12-04 01:20:00,
2013-12-03 20:30:00,45.1,39.0,29.85,NNW,348,7.0,7.0,79,0.00,,,0.00,Wunderground v.1.15,2013-12-04 01:30:00,
2013-12-03 20:40:00,45.1,39.0,29.85,North,359,7.0,7.0,79,0.00,,,0.00,Wunderground v.1.15,2013-12-04 01:40:00,
2013-12-03 20:50:00,44.9,38.8,29.85,NNE,33,7.0,7.0,79,0.00,,,0.00,Wunderground v.1.15,2013-12-04 01:50:00,
2013-12-03 21:00:00,44.7,38.6,29.85,NE,40,6.0,6.0,79,0.00,,,0.00,Wunderground v.1.15,2013-12-04 02:00:00,
2013-12-03 21:10:00,44.3,38.2,29.85,North,2,5.0,6.0,79,0.00,,,0.00,Wunderground v.1.15,2013-12-04 02:10:00,
2013-12-03 21:20:00,43.9,38.1,29.85,NNW,345,5.0,5.0,80,0.00,,,0.00,Wunderground v.1.15,2013-12-04 02:20:00,
2013-12-03 21:30:00,43.6,37.8,29.85,NNE,25,4.0,5.0,80,0.00,,,0.00,Wunderground v.1.15,2013-12-04 02:30:00,
2013-12-03 21:40:00,43.2,37.8,29.85,North,356,4.0,6.0,81,0.00,,,0.00,Wunderground v.1.15,2013-12-04 02:40:00,
2013-12-03 21:50:00,42.9,37.5,29.86,NW,323,5.0,5.0,81,0.00,,,0.00,Wunderground v.1.15,2013-12-04 02:50:00,
2013-12-03 22:00:00,42.9,37.5,29.86,North,355,5.0,5.0,81,0.00,,,0.00,Wunderground v.1.15,2013-12-04 03:00:00,
2013-12-03 22:10:00,42.9,37.5,29.86,North,5,5.0,7.0,81,0.00,,,0.00,Wunderground v.1.15,2013-12-04 03:10:00,
2013-12-03 22:20:00,42.9,37.2,29.86,North,1,6.0,7.0,80,0.00,,,0.00,Wunderground v.1.15,2013-12-04 03:20:00,
2013-12-03 22:30:00,42.9,37.2,29.87,North,360,6.0,6.0,80,0.00,,,0.00,Wunderground v.1.15,2013-12-04 03:30:00,
2013-12-03 22:40:00,42.6,36.9,29.87,NNE,20,6.0,6.0,80,0.00,,,0.00,Wunderground v.1.15,2013-12-04 03:40:00,
2013-12-03 22:50:00,42.5,36.8,29.87,NE,48,6.0,6.0,80,0.00,,,0.00,Wunderground v.1.15,2013-12-04 03:50:00,
2013-12-03 23:00:00,42.4,36.7,29.87,North,360,6.0,6.0,80,0.00,,,0.00,Wunderground v.1.15,2013-12-04 04:00:00,
2013-12-03 23:10:00,42.2,36.5,29.87,North,355,6.0,6.0,80,0.00,,,0.00,Wunderground v.1.15,2013-12-04 04:10:00,
2013-12-03 23:20:00,42.1,36.4,29.87,North,11,5.0,5.0,80,0.00,,,0.00,Wunderground v.1.15,2013-12-04 04:20:00,
2013-12-03 23:30:00,41.9,36.2,29.88,North,358,4.0,4.0,80,0.00,,,0.00,Wunderground v.1.15,2013-12-04 04:30:00,
2013-12-03 23:40:00,41.8,36.1,29.88,NNE,12,5.0,5.0,80,0.00,,,0.00,Wunderground v.1.15,2013-12-04 04:40:00,
2013-12-03 23:50:00,41.8,36.4,29.89,NNE,16,4.0,5.0,81,0.00,,,0.00,Wunderground v.1.15,2013-12-04 04:50:00,